Weather History for KLLJ - June, 2013

Change the Weather History Date:

Wednesday, June 19, 2013

  Actual Average Record
Temperature  
Mean Temperature 56 °F 61 °F  
Max Temperature 69 °F 77 °F 97 °F (1940)
Min Temperature 42 °F 46 °F 25 °F (1914)
Degree Days  
Heating Degree Days 9 5  
Month to date heating degree days 69 131  
Since 1 June heating degree days 69 131  
Since 1 July heating degree days 7690 8127  
Cooling Degree Days 0 1  
Month to date cooling degree days 29 7  
Year to date cooling degree days 31 9  
Since 1 June cooling degree days 29 7  
Growing Degree Days 5 (Base 50)    
Moisture  
Dew Point 38 °F    
Average Humidity 55    
Maximum Humidity 76    
Minimum Humidity 34    
Precipitation  
Precipitation 0.04 in 0.06 in 0.32 in (1995)
Month to date precipitation 0.13 1.15  
Year to date precipitation 1.35 5.29  
Sea Level Pressure  
Sea Level Pressure 29.64 in    
Wind  
Wind Speed 8 mph (WNW)    
Max Wind Speed 33 mph    
Max Gust Speed 46 mph    
Visibility 10 miles    
Events Rain , Thunderstorm    
T = Trace of Precipitation, MM = Missing Value Source: NWS Daily Summary

Daily Weather History Graph

Daily Weather History Graph

Search for Another Location

Airport or City:

Trip Planner

Search our weather history database for the weather conditions in past years. The results will help you decide how hot, cold, wet, or windy it might be!

Date:

Astronomy

Jun. 19, 2013 Rise Set
Actual Time 5:51 AM MDT 9:24 PM MDT
Civil Twilight 5:14 AM MDT 10:01 PM MDT
Nautical Twilight 4:25 AM MDT 10:50 PM MDT
Astronomical Twilight 3:22 AM MDT 11:54 PM MDT
Moon 5:16 PM MDT (6/19) 2:46 AM MDT (6/19)
Length of Visible Light 16h 47m
Length of Day
15h 33m
Waxing Gibbous, 81% of the Moon is Illuminated
Jun 19
Waxing Gibbous
Jun 23
Full
Jun 29
Last Quarter
Jul 8
New
Jul 15
First Quarter

Hourly Weather History & Observations

Time (MDT) Temp. Windchill Dew Point Humidity Pressure Visibility Wind Dir Wind Speed Gust Speed Precip Events Conditions
12:55 AM 66.9 °F - 37.0 °F 33% 29.42 in 10.0 mi NNW 6.9 mph - N/A   Clear
1:55 AM 64.0 °F - 41.0 °F 43% 29.38 in 10.0 mi NNW 11.5 mph - N/A   Clear
2:55 AM 64.0 °F - 39.9 °F 41% 29.36 in 10.0 mi North 8.1 mph - N/A   Clear
3:55 AM 62.1 °F - 42.1 °F 48% 29.38 in 10.0 mi NNW 8.1 mph - N/A   Clear
4:55 AM 63.0 °F - 39.9 °F 43% 29.40 in 10.0 mi West 6.9 mph - N/A   Clear
5:55 AM 63.0 °F - 39.9 °F 43% 29.45 in 10.0 mi Variable 3.5 mph - N/A   Mostly Cloudy
6:55 AM 61.0 °F - 39.0 °F 44% 29.46 in 10.0 mi WNW 16.1 mph 21.9 mph N/A   Overcast
7:55 AM 60.1 °F - 37.9 °F 44% 29.50 in 10.0 mi WNW 10.4 mph - N/A   Overcast
8:08 AM 55.4 °F - 42.8 °F 63% 29.71 in 5.0 mi NNW 10.4 mph - 0.01 in Rain , Thunderstorm Light Thunderstorms and Rain
8:19 AM 53.6 °F - 46.4 °F 77% 29.72 in 10.0 mi NNW 9.2 mph - 0.02 in Rain , Thunderstorm Light Rain
8:42 AM 55.4 °F - 44.6 °F 67% 29.72 in 10.0 mi NNW 8.1 mph - 0.02 in   Overcast
8:55 AM 55.0 °F - 45.0 °F 69% 29.55 in 10.0 mi NE 8.1 mph - 0.02 in   Overcast
9:55 AM 57.0 °F - 39.9 °F 53% 29.57 in 10.0 mi WSW 10.4 mph - 0.00 in   Overcast
10:55 AM 59.0 °F - 39.9 °F 49% 29.57 in 10.0 mi SE 5.8 mph - 0.00 in   Overcast
11:55 AM 55.9 °F - 33.1 °F 42% 29.62 in 10.0 mi SSE 20.7 mph 26.5 mph 0.00 in Rain Light Rain
12:55 PM 55.0 °F - 33.1 °F 43% 29.61 in 10.0 mi SSE 15.0 mph 25.3 mph 0.00 in   Overcast
1:55 PM 55.0 °F - 35.1 °F 47% 29.62 in 10.0 mi SSE 19.6 mph 27.6 mph N/A   Mostly Cloudy
2:55 PM 55.0 °F - 36.0 °F 49% 29.65 in 10.0 mi Variable 3.5 mph 16.1 mph N/A   Mostly Cloudy
3:55 PM 54.0 °F - 39.9 °F 59% 29.67 in 10.0 mi NW 18.4 mph - 0.00 in Rain Light Rain
4:55 PM 48.0 °F - 37.9 °F 68% 29.75 in 10.0 mi East 5.8 mph - 0.00 in Thunderstorm Overcast
5:12 PM 46.4 °F 36.7 °F 35.6 °F 66% 29.90 in 6.0 mi SW 33.4 mph 46.0 mph 0.00 in Rain Light Rain
5:55 PM 48.0 °F - 35.1 °F 61% 29.76 in 10.0 mi Calm Calm - 0.02 in   Overcast
6:55 PM 48.9 °F - 37.0 °F 64% 29.78 in 10.0 mi NW 5.8 mph - N/A   Mostly Cloudy
7:55 PM 48.9 °F - 37.0 °F 64% 29.80 in 10.0 mi SE 4.6 mph - N/A   Overcast
8:55 PM 48.0 °F - 35.1 °F 61% 29.84 in 10.0 mi SSE 10.4 mph - N/A   Overcast
9:55 PM 48.0 °F - 36.0 °F 63% 29.85 in 10.0 mi South 6.9 mph - N/A   Mostly Cloudy
10:55 PM 44.1 °F 42.5 °F 37.0 °F 76% 29.86 in 10.0 mi WNW 3.5 mph - N/A   Mostly Cloudy
11:55 PM 46.0 °F - 33.1 °F 61% 29.88 in 10.0 mi Calm Calm - N/A   Scattered Clouds